12-02-2022, 00:00:00,    162,    1.5,    0.7,   0.00,   0.00, 1023.8,   84.0, -999.0
12-02-2022, 00:00:11,    192,    0.6,    0.8,   0.00,   0.00, 1023.8,   83.9, -999.0
12-02-2022, 00:00:21,    189,    0.2,    0.7,   0.00,   0.00, 1023.7,   83.7, -999.0
12-02-2022, 00:00:30,    188,    0.0,    0.6,   0.00,   0.00, 1023.7,   83.7, -999.0
12-02-2022, 00:00:40,    133,    0.0,    0.7,   0.00,   0.00, 1023.6,   83.6, -999.0
12-02-2022, 00:00:51,    133,    0.3,    0.7,   0.00,   0.00, 1023.8,   83.8, -999.0
12-02-2022, 00:01:00,    132,    0.0,    0.7,   0.00,   0.00, 1023.6,   83.5, -999.0
12-02-2022, 00:01:10,    133,    0.0,    0.6,   0.00,   0.00, 1023.6,   83.5, -999.0
12-02-2022, 00:01:20,    132,    0.0,    0.6,   0.00,   0.00, 1023.6,   83.5, -999.0
12-02-2022, 00:01:30,    144,    0.3,    0.6,   0.00,   0.00, 1023.6,   83.7, -999.0
12-02-2022, 00:01:40,    144,    0.2,    0.7,   0.00,   0.00, 1023.7,   83.7, -999.0
12-02-2022, 00:01:50,    144,    0.0,    0.7,   0.00,   0.00, 1023.6,   83.7, -999.0
12-02-2022, 00:02:00,    144,    0.0,    0.6,   0.00,   0.00, 1023.6,   83.6, -999.0
12-02-2022, 00:02:10,    145,    0.0,    0.7,   0.00,   0.00, 1023.6,   83.6, -999.0
12-02-2022, 00:02:20,    145,    0.0,    0.7,   0.00,   0.00, 1023.6,   83.6, -999.0
12-02-2022, 00:02:30,    144,    0.0,    0.6,   0.00,   0.00, 1023.6,   83.5, -999.0
12-02-2022, 00:02:40,    145,    0.0,    0.6,   0.00,   0.00, 1023.6,   83.6, -999.0
12-02-2022, 00:02:50,    144,    0.0,    0.6,   0.00,   0.00, 1023.6,   83.6, -999.0
12-02-2022, 00:03:00,    145,    0.0,    0.7,   0.00,   0.00, 1023.6,   83.5, -999.0
12-02-2022, 00:03:10,    147,    0.0,    0.6,   0.00,   0.00, 1023.6,   83.6, -999.0
12-02-2022, 00:03:20,    150,    0.0,    0.5,   0.00,   0.00, 1023.6,   83.4, -999.0
12-02-2022, 00:03:30,    154,    0.1,    0.6,   0.00,   0.00, 1023.7,   83.7, -999.0
12-02-2022, 00:03:39,    156,    0.4,    0.7,   0.00,   0.00, 1023.7,   83.9, -999.0
12-02-2022, 00:03:49,    157,    0.1,    0.7,   0.00,   0.00, 1023.7,   83.6, -999.0
12-02-2022, 00:04:00,    158,    0.0,    0.7,   0.00,   0.00, 1023.6,   83.5, -999.0
12-02-2022, 00:04:09,    158,    0.0,    0.6,   0.00,   0.00, 1023.6,   83.5, -999.0
12-02-2022, 00:04:19,    158,    0.0,    0.6,   0.00,   0.00, 1023.6,   83.5, -999.0
12-02-2022, 00:04:29,    158,    0.0,    0.7,   0.00,   0.00, 1023.6,   83.5, -999.0
12-02-2022, 00:04:39,    158,    0.0,    0.6,   0.00,   0.00, 1023.6,   83.5, -999.0
12-02-2022, 00:04:49,    158,    0.0,    0.6,   0.00,   0.00, 1023.6,   83.7, -999.0
12-02-2022, 00:04:59,    165,    0.0,    0.6,   0.00,   0.00, 1023.6,   83.6, -999.0
12-02-2022, 00:05:09,    185,    0.2,    0.7,   0.00,   0.00, 1023.6,   83.8, -999.0
12-02-2022, 00:05:19,    184,    0.0,    0.7,   0.00,   0.00, 1023.6,   83.6, -999.0
12-02-2022, 00:05:29,    185,    0.0,    0.6,   0.00,   0.00, 1023.6,   83.6, -999.0
12-02-2022, 00:05:39,    184,    0.0,    0.7,   0.00,   0.00, 1023.5,   83.5, -999.0
12-02-2022, 00:05:49,    150,    0.3,    0.7,   0.00,   0.00, 1023.7,   83.9, -999.0
12-02-2022, 00:05:59,    149,    0.0,    0.7,   0.00,   0.00, 1023.6,   83.5, -999.0
12-02-2022, 00:06:09,    149,    0.4,    0.7,   0.00,   0.00, 1023.7,   83.8, -999.0
12-02-2022, 00:06:19,    148,    0.2,    0.7,   0.00,   0.00, 1023.6,   83.7, -999.0
12-02-2022, 00:06:29,    148,    0.0,    0.7,   0.00,   0.00, 1023.5,   83.7, -999.0
12-02-2022, 00:06:39,    151,    0.4,    0.8,   0.00,   0.00, 1023.6,   84.1, -999.0
12-02-2022, 00:06:49,    152,    0.4,    0.8,   0.00,   0.00, 1023.7,   84.1, -999.0
12-02-2022, 00:06:58,    160,    0.0,    0.7,   0.00,   0.00, 1023.6,   83.8, -999.0
12-02-2022, 00:07:09,    160,    0.3,    0.8,   0.00,   0.00, 1023.7,   84.0, -999.0
12-02-2022, 00:07:19,    160,    0.1,    0.7,   0.00,   0.00, 1023.6,   83.9, -999.0
12-02-2022, 00:07:28,    159,    0.0,    0.7,   0.00,   0.00, 1023.5,   83.5, -999.0
12-02-2022, 00:07:38,    165,    0.8,    0.7,   0.00,   0.00, 1023.7,   83.9, -999.0
12-02-2022, 00:07:49,    204,    0.5,    0.7,   0.00,   0.00, 1023.7,   83.9, -999.0
12-02-2022, 00:07:58,    203,    0.0,    0.7,   0.00,   0.00, 1023.5,   83.6, -999.0
12-02-2022, 00:08:08,    203,    0.0,    0.6,   0.00,   0.00, 1023.5,   83.5, -999.0
12-02-2022, 00:08:18,    203,    0.0,    0.7,   0.00,   0.00, 1023.6,   83.6, -999.0
12-02-2022, 00:08:28,    203,    0.0,    0.6,   0.00,   0.00, 1023.5,   83.4, -999.0
12-02-2022, 00:08:38,    203,    0.0,    0.6,   0.00,   0.00, 1023.5,   83.4, -999.0
12-02-2022, 00:08:48,    203,    0.0,    0.7,   0.00,   0.00, 1023.6,   83.7, -999.0
12-02-2022, 00:08:58,    203,    0.0,    0.7,   0.00,   0.00, 1023.5,   83.5, -999.0
12-02-2022, 00:09:08,    203,    0.0,    0.7,   0.00,   0.00, 1023.5,   83.5, -999.0
12-02-2022, 00:09:18,    203,    0.0,    0.6,   0.00,   0.00, 1023.5,   83.5, -999.0
12-02-2022, 00:09:28,    203,    0.0,    0.6,   0.00,   0.00, 1023.5,   83.5, -999.0
12-02-2022, 00:09:38,    203,    0.0,    0.6,   0.00,   0.00, 1023.5,   83.5, -999.0
12-02-2022, 00:09:48,    203,    0.0,    0.5,   0.00,   0.00, 1023.5,   83.4, -999.0
12-02-2022, 00:09:58,    188,    0.1,    0.7,   0.00,   0.00, 1023.6,   83.6, -999.0
12-02-2022, 00:10:08,    189,    0.0,    0.7,   0.00,   0.00, 1023.5,   83.5, -999.0
12-02-2022, 00:10:18,    188,    0.0,    0.7,   0.00,   0.00, 1023.6,   83.7, -999.0
12-02-2022, 00:10:28,    188,    0.0,    0.6,   0.00,   0.00, 1023.5,   83.6, -999.0
12-02-2022, 00:10:37,    188,    0.0,    0.4,   0.00,   0.00, 1023.6,   83.6, -999.0
12-02-2022, 00:10:47,    186,    0.3,    0.6,   0.00,   0.00, 1023.6,   83.8, -999.0
12-02-2022, 00:10:58,    186,    0.0,    0.6,   0.00,   0.00, 1023.5,   83.7, -999.0
12-02-2022, 00:11:07,    186,    0.0,    0.7,   0.00,   0.00, 1023.6,   83.6, -999.0
12-02-2022, 00:11:17,    136,    0.6,    0.7,   0.00,   0.00, 1023.7,   84.0, -999.0
12-02-2022, 00:11:27,    136,    0.2,    0.7,   0.00,   0.00, 1023.6,   83.8, -999.0
12-02-2022, 00:11:37,    136,    0.0,    0.5,   0.00,   0.00, 1023.5,   83.7, -999.0
12-02-2022, 00:11:47,    136,    0.0,    0.6,   0.00,   0.00, 1023.5,   83.8, -999.0
12-02-2022, 00:11:57,    136,    0.0,    0.6,   0.00,   0.00, 1023.5,   83.7, -999.0
12-02-2022, 00:12:07,    158,    0.5,    0.8,   0.00,   0.00, 1023.7,   84.2, -999.0
12-02-2022, 00:12:17,    157,    0.0,    0.7,   0.00,   0.00, 1023.6,   83.9, -999.0
12-02-2022, 00:12:27,    159,    0.0,    0.7,   0.00,   0.00, 1023.6,   83.5, -999.0
12-02-2022, 00:12:37,    160,    0.0,    0.5,   0.00,   0.00, 1023.5,   83.7, -999.0
12-02-2022, 00:12:47,    185,    0.6,    0.5,   0.00,   0.00, 1023.6,   83.9, -999.0
12-02-2022, 00:12:57,    184,    0.4,    0.7,   0.00,   0.00, 1023.6,   83.9, -999.0
12-02-2022, 00:13:07,    184,    0.0,    0.6,   0.00,   0.00, 1023.6,   83.7, -999.0
12-02-2022, 00:13:17,    156,    0.7,    0.7,   0.00,   0.00, 1023.7,   84.0, -999.0
12-02-2022, 00:13:27,    158,    0.8,    0.8,   0.00,   0.00, 1023.7,   84.2, -999.0
12-02-2022, 00:13:37,    156,    0.3,    0.7,   0.00,   0.00, 1023.6,   84.2, -999.0
12-02-2022, 00:13:47,    156,    0.0,    0.7,   0.00,   0.00, 1023.6,   83.8, -999.0
12-02-2022, 00:13:56,    158,    0.0,    0.6,   0.00,   0.00, 1023.5,   83.6, -999.0
12-02-2022, 00:14:07,    157,    0.0,    0.5,   0.00,   0.00, 1023.5,   83.7, -999.0
12-02-2022, 00:14:17,    161,    0.1,    0.6,   0.00,   0.00, 1023.6,   83.9, -999.0
12-02-2022, 00:14:26,    178,    0.3,    0.5,   0.00,   0.00, 1023.6,   83.9, -999.0
12-02-2022, 00:14:36,    178,    0.0,    0.6,   0.00,   0.00, 1023.5,   83.6, -999.0
12-02-2022, 00:14:47,    178,    0.0,    0.6,   0.00,   0.00, 1023.5,   83.6, -999.0
12-02-2022, 00:14:56,    177,    0.0,    0.6,   0.00,   0.00, 1023.5,   83.7, -999.0
12-02-2022, 00:15:06,    177,    0.0,    0.5,   0.00,   0.00, 1023.5,   83.7, -999.0
12-02-2022, 00:15:16,    178,    0.0,    0.6,   0.00,   0.00, 1023.5,   83.7, -999.0
12-02-2022, 00:15:26,    177,    0.0,    0.5,   0.00,   0.00, 1023.5,   83.7, -999.0
12-02-2022, 00:15:36,    177,    0.0,    0.6,   0.00,   0.00, 1023.5,   83.5, -999.0
12-02-2022, 00:15:46,    177,    0.1,    0.6,   0.00,   0.00, 1023.6,   83.8, -999.0
12-02-2022, 00:15:56,    176,    0.0,    0.7,   0.00,   0.00, 1023.5,   83.8, -999.0
12-02-2022, 00:16:06,    176,    0.0,    0.6,   0.00,   0.00, 1023.5,   83.8, -999.0
12-02-2022, 00:16:16,    176,    0.0,    0.6,   0.00,   0.00, 1023.5,   83.7, -999.0
12-02-2022, 00:16:26,    174,    0.3,    0.6,   0.00,   0.00, 1023.6,   84.0, -999.0
12-02-2022, 00:16:36,    174,    0.1,    0.6,   0.00,   0.00, 1023.6,   84.0, -999.0
12-02-2022, 00:16:46,    174,    0.0,    0.5,   0.00,   0.00, 1023.5,   83.7, -999.0
12-02-2022, 00:16:56,    174,    0.0,    0.6,   0.00,   0.00, 1023.5,   83.6, -999.0
12-02-2022, 00:17:06,    184,    0.1,    0.6,   0.00,   0.00, 1023.6,   83.9, -999.0
12-02-2022, 00:17:16,    156,    1.9,    0.6,   0.00,   0.00, 1023.7,   84.2, -999.0
12-02-2022, 00:17:26,    156,    0.6,    0.7,   0.00,   0.00, 1023.6,   84.2, -999.0
12-02-2022, 00:17:36,    155,    0.5,    0.6,   0.00,   0.00, 1023.7,   84.3, -999.0
12-02-2022, 00:17:45,    180,    1.0,    0.6,   0.00,   0.00, 1023.6,   84.0, -999.0
12-02-2022, 00:17:56,    194,    0.9,    0.7,   0.00,   0.00, 1023.6,   84.1, -999.0
12-02-2022, 00:18:05,    194,    0.0,    0.5,   0.00,   0.00, 1023.5,   83.7, -999.0
12-02-2022, 00:18:15,    194,    0.0,    0.6,   0.00,   0.00, 1023.5,   83.9, -999.0
12-02-2022, 00:18:25,    194,    0.0,    0.6,   0.00,   0.00, 1023.5,   84.0, -999.0
12-02-2022, 00:18:35,    193,    0.0,    0.6,   0.00,   0.00, 1023.6,   84.0, -999.0
12-02-2022, 00:18:45,    193,    0.0,    0.6,   0.00,   0.00, 1023.5,   83.9, -999.0
12-02-2022, 00:18:55,    193,    0.3,    0.6,   0.00,   0.00, 1023.6,   84.1, -999.0
12-02-2022, 00:19:05,    193,    0.2,    0.7,   0.00,   0.00, 1023.6,   84.1, -999.0
12-02-2022, 00:19:15,    193,    0.2,    0.7,   0.00,   0.00, 1023.6,   84.2, -999.0
12-02-2022, 00:19:25,    193,    0.2,    0.7,   0.00,   0.00, 1023.6,   84.2, -999.0
12-02-2022, 00:19:35,    192,    0.0,    0.6,   0.00,   0.00, 1023.5,   84.0, -999.0
12-02-2022, 00:19:45,    192,    0.0,    0.7,   0.00,   0.00, 1023.5,   84.1, -999.0
12-02-2022, 00:19:55,    122,    0.3,    0.7,   0.00,   0.00, 1023.6,   84.4, -999.0
12-02-2022, 00:20:05,    168,    1.3,    0.7,   0.00,   0.00, 1023.6,   84.5, -999.0
12-02-2022, 00:20:15,    171,    0.4,    0.7,   0.00,   0.00, 1023.6,   84.4, -999.0
12-02-2022, 00:20:24,    171,    0.1,    0.7,   0.00,   0.00, 1023.6,   84.1, -999.0
12-02-2022, 00:20:35,    155,    0.5,    0.7,   0.00,   0.00, 1023.6,   84.3, -999.0
12-02-2022, 00:20:45,    155,    0.1,    0.7,   0.00,   0.00, 1023.5,   84.1, -999.0
12-02-2022, 00:20:54,    158,    0.3,    0.8,   0.00,   0.00, 1023.6,   84.3, -999.0
12-02-2022, 00:21:05,    158,    0.1,    0.7,   0.00,   0.00, 1023.5,   84.2, -999.0
12-02-2022, 00:21:15,    123,    0.8,    0.8,   0.00,   0.00, 1023.6,   84.4, -999.0
12-02-2022, 00:21:24,    137,    0.1,    0.7,   0.00,   0.00, 1023.5,   84.3, -999.0
12-02-2022, 00:21:34,    144,    0.0,    0.8,   0.00,   0.00, 1023.4,   84.2, -999.0
12-02-2022, 00:21:45,    180,    0.0,    0.7,   0.00,   0.00, 1023.5,   84.2, -999.0
12-02-2022, 00:21:54,    180,    0.0,    0.7,   0.00,   0.00, 1023.4,   84.1, -999.0
12-02-2022, 00:22:04,    181,    0.0,    0.7,   0.00,   0.00, 1023.4,   84.1, -999.0
12-02-2022, 00:22:14,    157,    0.2,    0.6,   0.00,   0.00, 1023.5,   84.2, -999.0
12-02-2022, 00:22:24,    156,    0.1,    0.7,   0.00,   0.00, 1023.5,   84.2, -999.0
12-02-2022, 00:22:34,    156,    0.0,    0.7,   0.00,   0.00, 1023.4,   84.1, -999.0
12-02-2022, 00:22:44,    156,    0.0,    0.8,   0.00,   0.00, 1023.4,   84.2, -999.0
12-02-2022, 00:22:54,    155,    0.3,    0.6,   0.00,   0.00, 1023.4,   84.1, -999.0
12-02-2022, 00:23:04,    155,    0.5,    0.7,   0.00,   0.00, 1023.6,   84.4, -999.0
12-02-2022, 00:23:14,    155,    0.4,    0.8,   0.00,   0.00, 1023.6,   84.2, -999.0
12-02-2022, 00:23:24,    155,    0.3,    0.8,   0.00,   0.00, 1023.6,   84.3, -999.0
12-02-2022, 00:23:34,    154,    0.0,    0.7,   0.00,   0.00, 1023.5,   84.0, -999.0
12-02-2022, 00:23:44,    154,    0.0,    0.7,   0.00,   0.00, 1023.4,   83.9, -999.0
12-02-2022, 00:23:54,    155,    0.0,    0.7,   0.00,   0.00, 1023.4,   84.0, -999.0
12-02-2022, 00:24:04,    154,    0.0,    0.7,   0.00,   0.00, 1023.4,   84.1, -999.0
12-02-2022, 00:24:13,    154,    0.0,    0.7,   0.00,   0.00, 1023.4,   84.0, -999.0
12-02-2022, 00:24:24,    154,    0.0,    0.7,   0.00,   0.00, 1023.5,   84.0, -999.0
12-02-2022, 00:24:34,    154,    0.1,    0.7,   0.00,   0.00, 1023.5,   84.2, -999.0
12-02-2022, 00:24:43,    154,    0.0,    0.8,   0.00,   0.00, 1023.4,   83.7, -999.0
12-02-2022, 00:24:54,    154,    0.1,    0.7,   0.00,   0.00, 1023.5,   84.1, -999.0
12-02-2022, 00:25:04,    166,    0.0,    0.7,   0.00,   0.00, 1023.4,   83.8, -999.0
12-02-2022, 00:25:13,    165,    0.0,    0.7,   0.00,   0.00, 1023.4,   83.9, -999.0
12-02-2022, 00:25:23,    163,    0.6,    0.7,   0.00,   0.00, 1023.5,   84.2, -999.0
12-02-2022, 00:25:33,    163,    0.5,    0.7,   0.00,   0.00, 1023.5,   84.2, -999.0
12-02-2022, 00:25:43,    163,    0.0,    0.6,   0.00,   0.00, 1023.4,   83.8, -999.0
12-02-2022, 00:25:53,    165,    0.1,    0.7,   0.00,   0.00, 1023.4,   84.0, -999.0
12-02-2022, 00:26:03,    164,    0.6,    0.8,   0.00,   0.00, 1023.5,   84.2, -999.0
12-02-2022, 00:26:13,    174,    0.1,    0.7,   0.00,   0.00, 1023.4,   84.1, -999.0
12-02-2022, 00:26:23,    161,    0.7,    0.8,   0.00,   0.00, 1023.4,   84.1, -999.0
12-02-2022, 00:26:33,    168,    0.2,    0.7,   0.00,   0.00, 1023.4,   84.1, -999.0
12-02-2022, 00:26:43,    160,    0.8,    0.7,   0.00,   0.00, 1023.5,   84.3, -999.0
12-02-2022, 00:26:53,    181,    0.8,    0.8,   0.00,   0.00, 1023.5,   84.2, -999.0
12-02-2022, 00:27:03,    181,    0.7,    0.7,   0.00,   0.00, 1023.5,   84.2, -999.0
12-02-2022, 00:27:13,    177,    0.3,    0.7,   0.00,   0.00, 1023.4,   84.2, -999.0
12-02-2022, 00:27:22,    181,    0.0,    0.6,   0.00,   0.00, 1023.3,   83.9, -999.0
12-02-2022, 00:27:33,    181,    0.0,    0.6,   0.00,   0.00, 1023.3,   83.9, -999.0
12-02-2022, 00:27:43,    181,    0.0,    0.7,   0.00,   0.00, 1023.3,   84.0, -999.0
12-02-2022, 00:27:52,    180,    0.0,    0.5,   0.00,   0.00, 1023.3,   83.9, -999.0
12-02-2022, 00:28:02,    180,    0.0,    0.6,   0.00,   0.00, 1023.3,   84.0, -999.0
12-02-2022, 00:28:13,    181,    0.0,    0.7,   0.00,   0.00, 1023.3,   84.1, -999.0
12-02-2022, 00:28:22,    180,    0.0,    0.7,   0.00,   0.00, 1023.3,   84.1, -999.0
12-02-2022, 00:28:32,    180,    0.0,    0.6,   0.00,   0.00, 1023.3,   83.9, -999.0
12-02-2022, 00:28:42,    180,    0.0,    0.7,   0.00,   0.00, 1023.4,   84.0, -999.0
12-02-2022, 00:28:52,    171,    0.0,    0.7,   0.00,   0.00, 1023.3,   84.1, -999.0
12-02-2022, 00:29:02,    155,    0.9,    0.7,   0.00,   0.00, 1023.5,   84.5, -999.0
12-02-2022, 00:29:12,    177,    0.4,    0.8,   0.00,   0.00, 1023.5,   84.3, -999.0
12-02-2022, 00:29:22,    176,    0.4,    0.7,   0.00,   0.00, 1023.4,   84.2, -999.0
12-02-2022, 00:29:32,    144,    0.8,    0.7,   0.00,   0.00, 1023.5,   84.3, -999.0
12-02-2022, 00:29:42,    144,    0.1,    0.7,   0.00,   0.00, 1023.3,   84.0, -999.0
12-02-2022, 00:29:52,    144,    0.0,    0.6,   0.00,   0.00, 1023.3,   83.9, -999.0
12-02-2022, 00:30:02,    143,    0.0,    0.5,   0.00,   0.00, 1023.3,   83.9, -999.0
12-02-2022, 00:30:12,    144,    0.1,    0.7,   0.00,   0.00, 1023.4,   84.1, -999.0
12-02-2022, 00:30:22,    144,    0.3,    0.8,   0.00,   0.00, 1023.5,   84.3, -999.0
12-02-2022, 00:30:32,    148,    0.3,    0.7,   0.00,   0.00, 1023.5,   84.5, -999.0
12-02-2022, 00:30:42,    149,    0.0,    0.7,   0.00,   0.00, 1023.3,   84.1, -999.0
12-02-2022, 00:30:52,    149,    0.1,    0.6,   0.00,   0.00, 1023.3,   84.3, -999.0
12-02-2022, 00:31:02,    148,    0.1,    0.6,   0.00,   0.00, 1023.3,   84.2, -999.0
12-02-2022, 00:31:11,    152,    0.7,    0.8,   0.00,   0.00, 1023.4,   84.4, -999.0
12-02-2022, 00:31:22,    154,    0.4,    0.8,   0.00,   0.00, 1023.4,   84.5, -999.0
12-02-2022, 00:31:32,    155,    0.3,    0.8,   0.00,   0.00, 1023.4,   84.5, -999.0
12-02-2022, 00:31:41,    155,    0.2,    0.8,   0.00,   0.00, 1023.3,   84.4, -999.0
12-02-2022, 00:31:52,    155,    0.0,    0.7,   0.00,   0.00, 1023.2,   84.2, -999.0
12-02-2022, 00:32:01,    155,    0.0,    0.7,   0.00,   0.00, 1023.2,   84.1, -999.0
12-02-2022, 00:32:11,    155,    0.0,    0.7,   0.00,   0.00, 1023.2,   84.2, -999.0
12-02-2022, 00:32:21,    153,    0.1,    0.8,   0.00,   0.00, 1023.3,   84.2, -999.0
12-02-2022, 00:32:31,    152,    0.2,    0.8,   0.00,   0.00, 1023.3,   84.3, -999.0
12-02-2022, 00:32:41,    151,    0.0,    0.8,   0.00,   0.00, 1023.2,   84.1, -999.0
12-02-2022, 00:32:51,    151,    0.0,    0.7,   0.00,   0.00, 1023.2,   84.1, -999.0
12-02-2022, 00:33:01,    174,    0.3,    0.8,   0.00,   0.00, 1023.3,   84.3, -999.0
12-02-2022, 00:33:11,    176,    0.2,    0.8,   0.00,   0.00, 1023.3,   84.4, -999.0
12-02-2022, 00:33:21,    176,    0.1,    0.7,   0.00,   0.00, 1023.3,   84.2, -999.0
12-02-2022, 00:33:31,    158,    0.4,    0.7,   0.00,   0.00, 1023.2,   84.3, -999.0
12-02-2022, 00:33:41,    158,    0.1,    0.7,   0.00,   0.00, 1023.2,   84.2, -999.0
12-02-2022, 00:33:51,    158,    0.0,    0.7,   0.00,   0.00, 1023.2,   84.2, -999.0
12-02-2022, 00:34:01,    163,    0.0,    0.7,   0.00,   0.00, 1023.2,   84.2, -999.0
12-02-2022, 00:34:11,    163,    0.0,    0.7,   0.00,   0.00, 1023.1,   84.0, -999.0
12-02-2022, 00:34:20,    186,    0.2,    0.8,   0.00,   0.00, 1023.3,   84.2, -999.0
12-02-2022, 00:34:31,    186,    0.3,    0.8,   0.00,   0.00, 1023.3,   84.4, -999.0
12-02-2022, 00:34:41,    131,    0.8,    0.9,   0.00,   0.00, 1023.3,   84.5, -999.0
12-02-2022, 00:34:50,    153,    0.8,    0.8,   0.00,   0.00, 1023.3,   84.5, -999.0
12-02-2022, 00:35:00,    156,    0.5,    0.8,   0.00,   0.00, 1023.3,   84.5, -999.0
12-02-2022, 00:35:11,    155,    0.0,    0.8,   0.00,   0.00, 1023.2,   84.2, -999.0
12-02-2022, 00:35:20,    155,    0.0,    0.8,   0.00,   0.00, 1023.2,   84.1, -999.0
12-02-2022, 00:35:30,    155,    0.0,    0.8,   0.00,   0.00, 1023.2,   84.1, -999.0
12-02-2022, 00:35:41,    158,    0.0,    0.8,   0.00,   0.00, 1023.2,   84.3, -999.0
12-02-2022, 00:35:50,    158,    0.0,    0.9,   0.00,   0.00, 1023.2,   84.2, -999.0
12-02-2022, 00:36:00,    165,    0.3,    0.9,   0.00,   0.00, 1023.3,   84.5, -999.0
12-02-2022, 00:36:10,    162,    0.6,    0.8,   0.00,   0.00, 1023.3,   84.4, -999.0
12-02-2022, 00:36:20,    165,    0.9,    0.8,   0.00,   0.00, 1023.3,   84.4, -999.0
12-02-2022, 00:36:30,    165,    0.0,    0.7,   0.00,   0.00, 1023.1,   83.9, -999.0
12-02-2022, 00:36:40,    165,    0.0,    0.8,   0.00,   0.00, 1023.1,   84.0, -999.0
12-02-2022, 00:36:50,    165,    0.0,    0.7,   0.00,   0.00, 1023.2,   84.1, -999.0
12-02-2022, 00:37:00,    165,    0.0,    0.7,   0.00,   0.00, 1023.1,   84.1, -999.0
12-02-2022, 00:37:10,    165,    0.0,    0.9,   0.00,   0.00, 1023.1,   84.1, -999.0
12-02-2022, 00:37:20,    165,    0.0,    0.8,   0.00,   0.00, 1023.1,   84.0, -999.0
12-02-2022, 00:37:30,    165,    0.0,    0.8,   0.00,   0.00, 1023.1,   84.1, -999.0
12-02-2022, 00:37:40,    165,    0.0,    0.8,   0.00,   0.00, 1023.1,   84.1, -999.0
12-02-2022, 00:37:50,    165,    0.0,    0.8,   0.00,   0.00, 1023.1,   84.1, -999.0
12-02-2022, 00:38:00,    165,    0.0,    0.8,   0.00,   0.00, 1023.1,   84.1, -999.0
12-02-2022, 00:38:09,    190,    0.0,    0.8,   0.00,   0.00, 1023.1,   84.1, -999.0
12-02-2022, 00:38:20,    189,    0.1,    0.9,   0.00,   0.00, 1023.2,   84.6, -999.0
12-02-2022, 00:38:30,    189,    0.1,    0.9,   0.00,   0.00, 1023.2,   84.3, -999.0
12-02-2022, 00:38:39,    189,    0.0,    0.8,   0.00,   0.00, 1023.1,   84.1, -999.0
12-02-2022, 00:38:49,    188,    0.0,    0.8,   0.00,   0.00, 1023.1,   84.1, -999.0
12-02-2022, 00:38:59,    189,    0.0,    0.8,   0.00,   0.00, 1023.2,   84.4, -999.0
12-02-2022, 00:39:09,    109,    0.4,    0.9,   0.00,   0.00, 1023.2,   84.4, -999.0
12-02-2022, 00:39:19,    116,    0.1,    0.9,   0.00,   0.00, 1023.1,   84.3, -999.0
12-02-2022, 00:39:29,    117,    0.0,    0.9,   0.00,   0.00, 1023.2,   84.1, -999.0
12-02-2022, 00:39:39,    116,    0.0,    0.9,   0.00,   0.00, 1023.1,   84.0, -999.0
12-02-2022, 00:39:49,    116,    0.0,    0.8,   0.00,   0.00, 1023.1,   84.0, -999.0
12-02-2022, 00:39:59,    116,    0.0,    0.7,   0.00,   0.00, 1023.1,   84.0, -999.0
12-02-2022, 00:40:09,    118,    0.0,    0.8,   0.00,   0.00, 1023.1,   84.0, -999.0
12-02-2022, 00:40:19,    118,    0.0,    0.8,   0.00,   0.00, 1023.1,   84.0, -999.0
12-02-2022, 00:40:29,    118,    0.0,    0.9,   0.00,   0.00, 1023.1,   83.9, -999.0
12-02-2022, 00:40:39,    118,    0.0,    0.8,   0.00,   0.00, 1023.1,   83.9, -999.0
12-02-2022, 00:40:49,    118,    0.0,    0.7,   0.00,   0.00, 1023.1,   83.8, -999.0
12-02-2022, 00:40:59,    118,    0.0,    0.8,   0.00,   0.00, 1023.2,   83.8, -999.0
12-02-2022, 00:41:09,    118,    0.0,    0.7,   0.00,   0.00, 1023.1,   83.8, -999.0
12-02-2022, 00:41:18,    131,    0.0,    0.8,   0.00,   0.00, 1023.1,   83.8, -999.0
12-02-2022, 00:41:29,    131,    0.0,    0.7,   0.00,   0.00, 1023.1,   83.8, -999.0
12-02-2022, 00:41:39,    142,    0.0,    0.8,   0.00,   0.00, 1023.1,   83.9, -999.0
12-02-2022, 00:41:48,    142,    0.0,    0.8,   0.00,   0.00, 1023.1,   84.0, -999.0
12-02-2022, 00:41:58,    142,    0.0,    0.7,   0.00,   0.00, 1023.1,   83.8, -999.0
12-02-2022, 00:42:09,    143,    0.0,    0.7,   0.00,   0.00, 1023.1,   83.9, -999.0
12-02-2022, 00:42:18,    142,    0.0,    0.7,   0.00,   0.00, 1023.1,   83.8, -999.0
12-02-2022, 00:42:28,    143,    0.1,    0.7,   0.00,   0.00, 1023.2,   84.0, -999.0
12-02-2022, 00:42:39,    151,    0.0,    0.8,   0.00,   0.00, 1023.1,   84.0, -999.0
12-02-2022, 00:42:48,    151,    0.0,    0.6,   0.00,   0.00, 1023.1,   83.9, -999.0
12-02-2022, 00:42:58,    151,    0.0,    0.7,   0.00,   0.00, 1023.1,   83.9, -999.0
12-02-2022, 00:43:08,    151,    0.0,    0.7,   0.00,   0.00, 1023.1,   83.9, -999.0
12-02-2022, 00:43:18,    151,    0.0,    0.7,   0.00,   0.00, 1023.1,   83.9, -999.0
12-02-2022, 00:43:28,    151,    0.0,    0.7,   0.00,   0.00, 1023.1,   83.9, -999.0
12-02-2022, 00:43:38,    151,    0.0,    0.8,   0.00,   0.00, 1023.1,   84.0, -999.0
12-02-2022, 00:43:48,    151,    0.0,    0.9,   0.00,   0.00, 1023.2,   84.4, -999.0
12-02-2022, 00:43:58,    160,    0.1,    0.9,   0.00,   0.00, 1023.2,   84.4, -999.0
12-02-2022, 00:44:08,    160,    0.0,    0.8,   0.00,   0.00, 1023.1,   84.2, -999.0
12-02-2022, 00:44:18,    153,    0.6,    0.9,   0.00,   0.00, 1023.2,   84.5, -999.0
12-02-2022, 00:44:28,    166,    0.6,    0.9,   0.00,   0.00, 1023.2,   84.3, -999.0
12-02-2022, 00:44:38,    176,    0.2,    0.9,   0.00,   0.00, 1023.2,   84.1, -999.0
12-02-2022, 00:44:48,    176,    0.0,    0.8,   0.00,   0.00, 1023.1,   83.9, -999.0
12-02-2022, 00:44:58,    176,    0.0,    0.7,   0.00,   0.00, 1023.1,   83.9, -999.0
12-02-2022, 00:45:07,    176,    0.0,    0.7,   0.00,   0.00, 1023.1,   83.9, -999.0
12-02-2022, 00:45:18,    179,    0.1,    0.8,   0.00,   0.00, 1023.2,   84.2, -999.0
12-02-2022, 00:45:27,    175,    0.3,    0.8,   0.00,   0.00, 1023.1,   84.2, -999.0
12-02-2022, 00:45:37,    175,    0.0,    0.7,   0.00,   0.00, 1023.1,   84.0, -999.0
12-02-2022, 00:45:48,    175,    0.0,    0.6,   0.00,   0.00, 1023.0,   83.9, -999.0
12-02-2022, 00:45:57,    175,    0.0,    0.7,   0.00,   0.00, 1023.0,   84.0, -999.0
12-02-2022, 00:46:07,    175,    0.2,    0.8,   0.00,   0.00, 1023.1,   84.2, -999.0
12-02-2022, 00:46:17,    174,    0.0,    0.8,   0.00,   0.00, 1023.0,   84.0, -999.0
12-02-2022, 00:46:27,    139,    0.7,    0.8,   0.00,   0.00, 1023.1,   84.3, -999.0
12-02-2022, 00:46:37,    144,    0.3,    0.7,   0.00,   0.00, 1023.1,   84.2, -999.0